Time,TemperatureF,DewpointF,PressureIn,WindDirection,WindDirectionDegrees,WindSpeedMPH,WindSpeedGustMPH,Humidity,HourlyPrecipIn,Conditions,Clouds,dailyrainin,SoftwareType,DateUTC
2017-06-25 00:03:00,67.5,42.0,25.24,ENE,68,2.0,-999.0,40,0.00,,,0.00,,2017-06-25 07:03:00,
2017-06-25 00:09:00,67.5,43.0,25.24,NE,45,0.0,-999.0,41,0.00,,,0.00,,2017-06-25 07:09:00,
2017-06-25 00:14:00,67.3,43.0,25.24,SW,225,0.0,-999.0,41,0.00,,,0.00,,2017-06-25 07:14:00,
2017-06-25 00:20:00,66.6,43.0,25.24,NNW,338,1.0,-999.0,43,0.00,,,0.00,,2017-06-25 07:20:00,
2017-06-25 00:25:00,66.5,43.0,25.24,NNW,338,0.0,-999.0,43,0.00,,,0.00,,2017-06-25 07:25:00,
2017-06-25 00:31:00,66.4,43.0,25.24,East,90,0.0,-999.0,43,0.00,,,0.00,,2017-06-25 07:31:00,
2017-06-25 00:36:00,65.6,43.0,25.24,WNW,293,0.0,-999.0,44,0.00,,,0.00,,2017-06-25 07:36:00,
2017-06-25 00:42:00,65.5,42.0,25.24,WSW,248,0.0,-999.0,44,0.00,,,0.00,,2017-06-25 07:42:00,
2017-06-25 00:47:00,65.0,43.0,25.23,ESE,113,0.0,-999.0,45,0.00,,,0.00,,2017-06-25 07:47:00,
2017-06-25 00:53:00,64.4,43.0,25.23,ESE,113,1.0,-999.0,46,0.00,,,0.00,,2017-06-25 07:53:00,
2017-06-25 00:58:00,63.9,44.0,25.24,NNW,338,0.0,-999.0,50,0.00,,,0.00,,2017-06-25 07:58:00,
2017-06-25 01:04:00,63.9,46.0,25.24,NNE,23,0.0,-999.0,51,0.00,,,0.00,,2017-06-25 08:04:00,
2017-06-25 01:10:00,63.9,46.0,25.24,ENE,68,0.0,-999.0,53,0.00,,,0.00,,2017-06-25 08:10:00,
2017-06-25 01:15:00,63.4,46.0,25.24,ESE,113,2.0,-999.0,54,0.00,,,0.00,,2017-06-25 08:15:00,
2017-06-25 01:21:00,63.4,46.0,25.24,East,90,1.0,-999.0,54,0.00,,,0.00,,2017-06-25 08:21:00,
2017-06-25 01:26:00,63.2,46.0,25.24,NW,315,1.0,-999.0,54,0.00,,,0.00,,2017-06-25 08:26:00,
2017-06-25 01:32:00,63.2,46.0,25.24,SSE,158,0.0,-999.0,55,0.00,,,0.00,,2017-06-25 08:32:00,
2017-06-25 01:37:00,63.2,47.0,25.24,WNW,293,0.0,-999.0,55,0.00,,,0.00,,2017-06-25 08:37:00,
2017-06-25 01:43:00,63.0,47.0,25.24,ESE,113,1.0,-999.0,55,0.00,,,0.00,,2017-06-25 08:43:00,
2017-06-25 01:48:00,62.7,47.0,25.24,NNW,338,1.0,-999.0,56,0.00,,,0.00,,2017-06-25 08:48:00,
2017-06-25 01:54:00,62.5,47.0,25.24,NNE,23,0.0,-999.0,56,0.00,,,0.00,,2017-06-25 08:54:00,
2017-06-25 02:00:00,62.2,47.0,25.24,NE,45,0.0,-999.0,59,0.00,,,0.00,,2017-06-25 09:00:00,
2017-06-25 02:05:00,62.1,48.0,25.24,East,90,2.0,-999.0,61,0.00,,,0.00,,2017-06-25 09:05:00,
2017-06-25 02:11:00,61.7,48.0,25.24,NNW,338,0.0,-999.0,61,0.00,,,0.00,,2017-06-25 09:11:00,
2017-06-25 02:16:00,61.7,49.0,25.24,ENE,68,0.0,-999.0,63,0.00,,,0.00,,2017-06-25 09:16:00,
2017-06-25 02:27:00,61.5,48.0,25.24,ENE,68,1.0,-999.0,61,0.00,,,0.00,,2017-06-25 09:27:00,
2017-06-25 02:32:00,61.3,48.0,25.24,West,270,1.0,-999.0,63,0.00,,,0.00,,2017-06-25 09:32:00,
2017-06-25 02:38:00,61.3,48.0,25.24,WSW,248,0.0,-999.0,61,0.00,,,0.00,,2017-06-25 09:38:00,
2017-06-25 02:43:00,61.1,48.0,25.24,NNE,23,1.0,-999.0,63,0.00,,,0.00,,2017-06-25 09:43:00,
2017-06-25 02:49:00,61.1,48.0,25.24,NE,45,0.0,-999.0,61,0.00,,,0.00,,2017-06-25 09:49:00,
2017-06-25 02:54:00,61.0,48.0,25.24,NE,45,0.0,-999.0,63,0.00,,,0.00,,2017-06-25 09:54:00,
2017-06-25 03:00:00,60.5,48.0,25.24,NNE,23,0.0,-999.0,63,0.00,,,0.00,,2017-06-25 10:00:00,
2017-06-25 03:06:00,60.7,48.0,25.24,South,180,1.0,-999.0,65,0.00,,,0.00,,2017-06-25 10:06:00,
2017-06-25 03:11:00,60.3,47.0,25.24,SE,135,0.0,-999.0,63,0.00,,,0.00,,2017-06-25 10:11:00,
2017-06-25 03:17:00,59.9,48.0,25.23,NW,315,0.0,-999.0,65,0.00,,,0.00,,2017-06-25 10:17:00,
2017-06-25 03:23:00,59.4,48.0,25.24,SE,135,0.0,-999.0,66,0.00,,,0.00,,2017-06-25 10:23:00,
2017-06-25 03:28:00,60.2,48.0,25.24,SSE,158,2.0,-999.0,65,0.00,,,0.00,,2017-06-25 10:28:00,
2017-06-25 03:34:00,60.2,48.0,25.24,WNW,293,1.0,-999.0,65,0.00,,,0.00,,2017-06-25 10:34:00,
2017-06-25 03:39:00,60.2,48.0,25.23,SSE,158,0.0,-999.0,65,0.00,,,0.00,,2017-06-25 10:39:00,
2017-06-25 03:46:00,60.5,49.0,25.24,SSE,158,0.0,-999.0,66,0.00,,,0.00,,2017-06-25 10:46:00,
2017-06-25 03:51:00,60.3,49.0,25.24,NNW,338,0.0,-999.0,68,0.00,,,0.00,,2017-06-25 10:51:00,
2017-06-25 03:57:00,60.0,49.0,25.24,WNW,293,1.0,-999.0,69,0.00,,,0.00,,2017-06-25 10:57:00,
2017-06-25 04:02:00,60.2,50.0,25.24,NW,315,2.0,-999.0,69,0.00,,,0.00,,2017-06-25 11:02:00,
2017-06-25 04:08:00,60.5,50.0,25.24,WNW,293,1.0,-999.0,69,0.00,,,0.00,,2017-06-25 11:08:00,
2017-06-25 04:13:00,60.7,50.0,25.24,North,0,1.0,-999.0,68,0.00,,,0.00,,2017-06-25 11:13:00,
2017-06-25 04:19:00,60.7,50.0,25.24,SW,225,1.0,-999.0,69,0.00,,,0.00,,2017-06-25 11:19:00,
2017-06-25 04:24:00,60.7,50.0,25.24,WNW,293,0.0,-999.0,70,0.00,,,0.00,,2017-06-25 11:24:00,
2017-06-25 04:30:00,60.5,51.0,25.24,WNW,293,2.0,-999.0,70,0.00,,,0.00,,2017-06-25 11:30:00,
2017-06-25 04:36:00,61.0,51.0,25.24,West,270,1.0,-999.0,70,0.00,,,0.00,,2017-06-25 11:36:00,
2017-06-25 04:41:00,61.0,51.0,25.24,ESE,113,0.0,-999.0,70,0.00,,,0.00,,2017-06-25 11:41:00,
2017-06-25 04:47:00,60.7,50.0,25.24,NNW,338,0.0,-999.0,70,0.00,,,0.00,,2017-06-25 11:47:00,
2017-06-25 04:53:00,60.3,50.0,25.24,ESE,113,0.0,-999.0,70,0.00,,,0.00,,2017-06-25 11:53:00,
2017-06-25 04:58:00,60.2,50.0,25.24,East,90,0.0,-999.0,70,0.00,,,0.00,,2017-06-25 11:58:00,
2017-06-25 05:04:00,59.9,50.0,25.24,NNE,23,0.0,-999.0,70,0.00,,,0.00,,2017-06-25 12:04:00,
2017-06-25 05:10:00,59.7,50.0,25.25,WNW,293,0.0,-999.0,71,0.00,,,0.00,,2017-06-25 12:10:00,
2017-06-25 05:16:00,59.3,50.0,25.25,NNW,338,0.0,-999.0,73,0.00,,,0.00,,2017-06-25 12:16:00,
2017-06-25 05:21:00,59.3,50.0,25.25,SSE,158,0.0,-999.0,73,0.00,,,0.00,,2017-06-25 12:21:00,
2017-06-25 05:24:00,59.3,50.0,25.25,SW,225,0.0,-999.0,71,0.00,,,0.00,,2017-06-25 12:24:00,
2017-06-25 05:29:00,59.2,50.0,25.25,NNW,338,0.0,-999.0,73,0.00,,,0.00,,2017-06-25 12:29:00,
2017-06-25 05:35:00,59.2,50.0,25.25,NNE,23,0.0,-999.0,74,0.00,,,0.00,,2017-06-25 12:35:00,
2017-06-25 05:42:00,59.2,50.0,25.25,SSW,203,0.0,-999.0,71,0.00,,,0.00,,2017-06-25 12:42:00,
2017-06-25 05:47:00,58.4,50.0,25.25,NNE,23,0.0,-999.0,75,0.00,,,0.00,,2017-06-25 12:47:00,
2017-06-25 05:53:00,58.4,50.0,25.25,ENE,68,0.0,-999.0,75,0.00,,,0.00,,2017-06-25 12:53:00,
2017-06-25 05:58:00,58.2,50.0,25.26,NE,45,0.0,-999.0,75,0.00,,,0.00,,2017-06-25 12:58:00,
2017-06-25 06:04:00,58.2,50.0,25.25,West,270,0.0,-999.0,75,0.00,,,0.00,,2017-06-25 13:04:00,
2017-06-25 06:09:00,58.0,50.0,25.26,East,90,0.0,-999.0,76,0.00,,,0.00,,2017-06-25 13:09:00,
2017-06-25 06:15:00,57.8,51.0,25.26,NE,45,1.0,-999.0,79,0.00,,,0.00,,2017-06-25 13:15:00,
2017-06-25 06:20:00,58.2,51.0,25.26,NNE,23,0.0,-999.0,79,0.00,,,0.00,,2017-06-25 13:20:00,
2017-06-25 06:26:00,58.8,51.0,25.26,SSE,158,0.0,-999.0,78,0.00,,,0.00,,2017-06-25 13:26:00,
2017-06-25 06:31:00,59.4,52.0,25.26,WSW,248,0.0,-999.0,76,0.00,,,0.00,,2017-06-25 13:31:00,
2017-06-25 06:37:00,61.0,53.0,25.26,ESE,113,0.0,-999.0,75,0.00,,,0.00,,2017-06-25 13:37:00,
2017-06-25 06:43:00,62.4,53.0,25.26,South,180,0.0,-999.0,71,0.00,,,0.00,,2017-06-25 13:43:00,
2017-06-25 06:48:00,63.9,53.0,25.26,West,270,0.0,-999.0,68,0.00,,,0.00,,2017-06-25 13:48:00,
2017-06-25 06:54:00,66.5,54.0,25.26,South,180,0.0,-999.0,63,0.00,,,0.00,,2017-06-25 13:54:00,
2017-06-25 06:59:00,68.6,53.0,25.26,ENE,68,0.0,-999.0,58,0.00,,,0.00,,2017-06-25 13:59:00,
2017-06-25 07:05:00,70.0,54.0,25.26,NNW,338,0.0,-999.0,56,0.00,,,0.00,,2017-06-25 14:05:00,
2017-06-25 07:11:00,69.6,54.0,25.26,WNW,293,0.0,-999.0,58,0.00,,,0.00,,2017-06-25 14:11:00,
2017-06-25 07:17:00,70.9,54.0,25.26,West,270,0.0,-999.0,55,0.00,,,0.00,,2017-06-25 14:17:00,
2017-06-25 07:22:00,71.8,54.0,25.26,NW,315,0.0,-999.0,55,0.00,,,0.00,,2017-06-25 14:22:00,
2017-06-25 07:28:00,72.6,55.0,25.27,ESE,113,0.0,-999.0,54,0.00,,,0.00,,2017-06-25 14:28:00,
2017-06-25 07:33:00,73.9,54.0,25.26,West,270,0.0,-999.0,50,0.00,,,0.00,,2017-06-25 14:33:00,
2017-06-25 07:39:00,74.6,55.0,25.27,SSW,203,0.0,-999.0,50,0.00,,,0.00,,2017-06-25 14:39:00,
2017-06-25 07:44:00,76.0,55.0,25.27,South,180,0.0,-999.0,49,0.00,,,0.00,,2017-06-25 14:44:00,
2017-06-25 07:50:00,75.6,55.0,25.27,SW,225,0.0,-999.0,49,0.00,,,0.00,,2017-06-25 14:50:00,
2017-06-25 07:55:00,77.6,55.0,25.26,East,90,0.0,-999.0,45,0.00,,,0.00,,2017-06-25 14:55:00,
2017-06-25 08:01:00,78.4,54.0,25.26,South,180,1.0,-999.0,44,0.00,,,0.00,,2017-06-25 15:01:00,
2017-06-25 08:06:00,78.8,53.0,25.26,SSE,158,4.0,-999.0,41,0.00,,,0.00,,2017-06-25 15:06:00,
2017-06-25 08:12:00,79.1,54.0,25.26,South,180,3.0,-999.0,41,0.00,,,0.00,,2017-06-25 15:12:00,
2017-06-25 08:18:00,79.9,54.0,25.27,ESE,113,0.0,-999.0,40,0.00,,,0.00,,2017-06-25 15:18:00,
2017-06-25 08:23:00,80.3,53.0,25.27,ESE,113,3.0,-999.0,40,0.00,,,0.00,,2017-06-25 15:23:00,
2017-06-25 08:29:00,82.1,54.0,25.27,WNW,293,1.0,-999.0,39,0.00,,,0.00,,2017-06-25 15:29:00,
2017-06-25 08:34:00,82.8,55.0,25.27,SSE,158,2.0,-999.0,39,0.00,,,0.00,,2017-06-25 15:34:00,
2017-06-25 08:40:00,81.9,54.0,25.27,ESE,113,3.0,-999.0,39,0.00,,,0.00,,2017-06-25 15:40:00,
2017-06-25 08:46:00,81.9,54.0,25.27,ESE,113,3.0,-999.0,39,0.00,,,0.00,,2017-06-25 15:46:00,
2017-06-25 08:51:00,83.2,55.0,25.27,ESE,113,4.0,-999.0,37,0.00,,,0.00,,2017-06-25 15:51:00,
2017-06-25 08:57:00,83.2,54.0,25.27,SE,135,2.0,-999.0,37,0.00,,,0.00,,2017-06-25 15:57:00,
2017-06-25 09:02:00,82.8,53.0,25.27,SSE,158,3.0,-999.0,37,0.00,,,0.00,,2017-06-25 16:02:00,
2017-06-25 09:08:00,83.0,54.0,25.27,East,90,2.0,-999.0,37,0.00,,,0.00,,2017-06-25 16:08:00,
2017-06-25 09:13:00,83.9,54.0,25.27,SSE,158,3.0,-999.0,37,0.00,,,0.00,,2017-06-25 16:13:00,
2017-06-25 09:19:00,84.6,53.0,25.27,NE,45,3.0,-999.0,35,0.00,,,0.00,,2017-06-25 16:19:00,
2017-06-25 09:25:00,85.1,52.0,25.26,East,90,3.0,-999.0,32,0.00,,,0.00,,2017-06-25 16:25:00,
2017-06-25 09:31:00,85.3,52.0,25.26,South,180,4.0,-999.0,31,0.00,,,0.00,,2017-06-25 16:31:00,
2017-06-25 09:36:00,87.3,47.0,25.26,ESE,113,5.0,-999.0,25,0.00,,,0.00,,2017-06-25 16:36:00,
2017-06-25 09:42:00,86.4,47.0,25.27,SSE,158,5.0,-999.0,25,0.00,,,0.00,,2017-06-25 16:42:00,
2017-06-25 09:47:00,87.3,42.0,25.26,ESE,113,5.0,-999.0,20,0.00,,,0.00,,2017-06-25 16:47:00,
2017-06-25 09:53:00,86.4,40.0,25.26,SSE,158,4.0,-999.0,20,0.00,,,0.00,,2017-06-25 16:53:00,
2017-06-25 09:58:00,88.6,41.0,25.26,ESE,113,6.0,-999.0,19,0.00,,,0.00,,2017-06-25 16:58:00,
2017-06-25 10:04:00,89.8,42.0,25.26,ESE,113,5.0,-999.0,19,0.00,,,0.00,,2017-06-25 17:04:00,
2017-06-25 10:10:00,89.2,42.0,25.26,ESE,113,8.0,-999.0,20,0.00,,,0.00,,2017-06-25 17:10:00,
2017-06-25 10:15:00,90.0,39.0,25.26,ENE,68,5.0,-999.0,17,0.00,,,0.00,,2017-06-25 17:15:00,
2017-06-25 10:21:00,88.6,41.0,25.26,SE,135,7.0,-999.0,19,0.00,,,0.00,,2017-06-25 17:21:00,
2017-06-25 10:26:00,90.3,42.0,25.26,ESE,113,4.0,-999.0,19,0.00,,,0.00,,2017-06-25 17:26:00,
2017-06-25 10:32:00,90.3,42.0,25.26,SSE,158,6.0,-999.0,19,0.00,,,0.00,,2017-06-25 17:32:00,
2017-06-25 10:37:00,90.3,42.0,25.26,ESE,113,5.0,-999.0,19,0.00,,,0.00,,2017-06-25 17:37:00,
2017-06-25 10:43:00,90.5,39.0,25.26,SSE,158,5.0,-999.0,17,0.00,,,0.00,,2017-06-25 17:43:00,
2017-06-25 10:48:00,91.1,40.0,25.26,NE,45,4.0,-999.0,17,0.00,,,0.00,,2017-06-25 17:48:00,
2017-06-25 10:54:00,92.6,41.0,25.26,SSE,158,3.0,-999.0,17,0.00,,,0.00,,2017-06-25 17:54:00,
2017-06-25 10:59:00,92.6,41.0,25.26,ESE,113,6.0,-999.0,17,0.00,,,0.00,,2017-06-25 17:59:00,
2017-06-25 11:05:00,92.6,39.0,25.26,NE,45,4.0,-999.0,15,0.00,,,0.00,,2017-06-25 18:05:00,
2017-06-25 11:10:00,92.3,39.0,25.26,ESE,113,8.0,-999.0,15,0.00,,,0.00,,2017-06-25 18:10:00,
2017-06-25 11:16:00,91.1,37.0,25.26,SSE,158,8.0,-999.0,15,0.00,,,0.00,,2017-06-25 18:16:00,
2017-06-25 11:22:00,91.1,37.0,25.26,NNE,23,2.0,-999.0,15,0.00,,,0.00,,2017-06-25 18:22:00,
2017-06-25 11:28:00,94.3,39.0,25.25,ESE,113,3.0,-999.0,15,0.00,,,0.00,,2017-06-25 18:28:00,
2017-06-25 11:33:00,95.9,40.0,25.26,SSE,158,2.0,-999.0,15,0.00,,,0.00,,2017-06-25 18:33:00,
2017-06-25 11:39:00,94.4,39.0,25.25,SSE,158,6.0,-999.0,15,0.00,,,0.00,,2017-06-25 18:39:00,
2017-06-25 11:45:00,94.3,39.0,25.25,ESE,113,5.0,-999.0,15,0.00,,,0.00,,2017-06-25 18:45:00,
2017-06-25 11:51:00,94.8,39.0,25.25,East,90,4.0,-999.0,15,0.00,,,0.00,,2017-06-25 18:51:00,
2017-06-25 11:56:00,93.9,40.0,25.24,ESE,113,2.0,-999.0,15,0.00,,,0.00,,2017-06-25 18:56:00,
2017-06-25 12:02:00,92.5,36.0,25.24,ESE,113,5.0,-999.0,13,0.00,,,0.00,,2017-06-25 19:02:00,
2017-06-25 12:07:00,93.0,36.0,25.25,ESE,113,11.0,-999.0,13,0.00,,,0.00,,2017-06-25 19:07:00,
2017-06-25 12:13:00,93.0,36.0,25.24,East,90,4.0,-999.0,13,0.00,,,0.00,,2017-06-25 19:13:00,
2017-06-25 12:18:00,93.1,36.0,25.24,ESE,113,2.0,-999.0,13,0.00,,,0.00,,2017-06-25 19:18:00,
2017-06-25 12:24:00,94.3,37.0,25.24,ESE,113,4.0,-999.0,13,0.00,,,0.00,,2017-06-25 19:24:00,
2017-06-25 12:30:00,94.8,38.0,25.24,ESE,113,5.0,-999.0,13,0.00,,,0.00,,2017-06-25 19:30:00,
2017-06-25 12:35:00,93.5,37.0,25.24,South,180,5.0,-999.0,13,0.00,,,0.00,,2017-06-25 19:35:00,
2017-06-25 12:41:00,94.3,37.0,25.23,South,180,7.0,-999.0,13,0.00,,,0.00,,2017-06-25 19:41:00,
2017-06-25 12:46:00,95.5,38.0,25.24,SE,135,3.0,-999.0,13,0.00,,,0.00,,2017-06-25 19:46:00,
2017-06-25 12:52:00,95.3,38.0,25.23,South,180,9.0,-999.0,13,0.00,,,0.00,,2017-06-25 19:52:00,
2017-06-25 12:57:00,93.0,36.0,25.23,SSE,158,5.0,-999.0,13,0.00,,,0.00,,2017-06-25 19:57:00,
2017-06-25 13:03:00,95.0,38.0,25.24,WSW,248,3.0,-999.0,13,0.00,,,0.00,,2017-06-25 20:03:00,
2017-06-25 13:08:00,94.6,38.0,25.23,SE,135,1.0,-999.0,13,0.00,,,0.00,,2017-06-25 20:08:00,
2017-06-25 13:14:00,96.4,39.0,25.23,ESE,113,6.0,-999.0,13,0.00,,,0.00,,2017-06-25 20:14:00,
2017-06-25 13:19:00,95.3,38.0,25.23,SE,135,2.0,-999.0,13,0.00,,,0.00,,2017-06-25 20:19:00,
2017-06-25 13:25:00,92.8,36.0,25.23,NNW,338,3.0,-999.0,13,0.00,,,0.00,,2017-06-25 20:25:00,
2017-06-25 13:30:00,92.8,38.0,25.23,ENE,68,5.0,-999.0,15,0.00,,,0.00,,2017-06-25 20:30:00,
2017-06-25 13:36:00,96.4,39.0,25.23,ESE,113,4.0,-999.0,13,0.00,,,0.00,,2017-06-25 20:36:00,
2017-06-25 13:41:00,96.9,39.0,25.22,NE,45,6.0,-999.0,13,0.00,,,0.00,,2017-06-25 20:41:00,
2017-06-25 13:47:00,91.0,38.0,25.22,NNW,338,4.0,-999.0,15,0.00,,,0.00,,2017-06-25 20:47:00,
2017-06-25 13:52:00,90.0,37.0,25.22,South,180,7.0,-999.0,15,0.00,,,0.00,,2017-06-25 20:52:00,
2017-06-25 13:58:00,89.2,37.0,25.21,ESE,113,5.0,-999.0,15,0.00,,,0.00,,2017-06-25 20:58:00,
2017-06-25 14:04:00,93.5,37.0,25.21,ESE,113,3.0,-999.0,13,0.00,,,0.00,,2017-06-25 21:04:00,
2017-06-25 14:09:00,96.0,39.0,25.22,NW,315,2.0,-999.0,13,0.00,,,0.00,,2017-06-25 21:09:00,
2017-06-25 14:15:00,98.0,38.0,25.21,North,0,4.0,-999.0,12,0.00,,,0.00,,2017-06-25 21:15:00,
2017-06-25 14:17:00,96.8,39.0,25.21,ESE,113,4.0,-999.0,13,0.00,,,0.00,,2017-06-25 21:17:00,
2017-06-25 14:23:00,99.3,39.0,25.21,NNW,338,4.0,-999.0,12,0.00,,,0.00,,2017-06-25 21:23:00,
2017-06-25 14:28:00,94.6,38.0,25.21,ESE,113,5.0,-999.0,13,0.00,,,0.00,,2017-06-25 21:28:00,
2017-06-25 14:34:00,95.5,40.0,25.21,ESE,113,6.0,-999.0,15,0.00,,,0.00,,2017-06-25 21:34:00,
2017-06-25 14:39:00,96.5,39.0,25.21,ESE,113,6.0,-999.0,13,0.00,,,0.00,,2017-06-25 21:39:00,
2017-06-25 14:45:00,97.3,41.0,25.20,SSE,158,10.0,-999.0,15,0.00,,,0.00,,2017-06-25 21:45:00,
2017-06-25 14:50:00,96.4,41.0,25.21,South,180,9.0,-999.0,15,0.00,,,0.00,,2017-06-25 21:50:00,
2017-06-25 14:56:00,96.4,41.0,25.20,SSW,203,4.0,-999.0,15,0.00,,,0.00,,2017-06-25 21:56:00,
2017-06-25 15:01:00,95.3,40.0,25.20,SE,135,9.0,-999.0,15,0.00,,,0.00,,2017-06-25 22:01:00,
2017-06-25 15:07:00,95.9,42.0,25.20,SE,135,8.0,-999.0,15,0.00,,,0.00,,2017-06-25 22:07:00,
2017-06-25 15:12:00,93.9,40.0,25.20,SSE,158,8.0,-999.0,15,0.00,,,0.00,,2017-06-25 22:12:00,
2017-06-25 15:18:00,93.6,42.0,25.20,South,180,8.0,-999.0,17,0.00,,,0.00,,2017-06-25 22:18:00,
2017-06-25 15:23:00,92.5,42.0,25.20,SSW,203,6.0,-999.0,17,0.00,,,0.00,,2017-06-25 22:23:00,
2017-06-25 15:28:00,90.5,41.0,25.20,SW,225,2.0,-999.0,17,0.00,,,0.00,,2017-06-25 22:28:00,
2017-06-25 15:34:00,91.1,41.0,25.20,South,180,0.0,-999.0,17,0.00,,,0.00,,2017-06-25 22:34:00,
2017-06-25 15:39:00,91.5,43.0,25.19,NNW,338,3.0,-999.0,19,0.00,,,0.00,,2017-06-25 22:39:00,
2017-06-25 15:45:00,96.4,44.0,25.20,West,270,6.0,-999.0,17,0.00,,,0.00,,2017-06-25 22:45:00,
2017-06-25 15:51:00,93.5,45.0,25.20,NW,315,13.0,-999.0,19,0.00,,,0.00,,2017-06-25 22:51:00,
2017-06-25 15:56:00,91.5,47.0,25.19,WNW,293,5.0,-999.0,22,0.00,,,0.00,,2017-06-25 22:56:00,
2017-06-25 16:03:00,90.0,48.0,25.20,NW,315,7.0,-999.0,24,0.00,,,0.00,,2017-06-25 23:03:00,
2017-06-25 16:08:00,92.8,49.0,25.19,NNW,338,13.0,-999.0,22,0.00,,,0.00,,2017-06-25 23:08:00,
2017-06-25 16:14:00,92.1,48.0,25.20,NNW,338,8.0,-999.0,22,0.00,,,0.00,,2017-06-25 23:14:00,
2017-06-25 16:19:00,92.5,48.0,25.19,NW,315,10.0,-999.0,22,0.00,,,0.00,,2017-06-25 23:19:00,
2017-06-25 16:26:00,91.1,47.0,25.19,NNW,338,10.0,-999.0,22,0.00,,,0.00,,2017-06-25 23:26:00,
2017-06-25 16:31:00,90.5,47.0,25.20,West,270,6.0,-999.0,22,0.00,,,0.00,,2017-06-25 23:31:00,
2017-06-25 16:37:00,90.6,47.0,25.20,West,270,9.0,-999.0,22,0.00,,,0.00,,2017-06-25 23:37:00,
2017-06-25 16:39:00,92.3,49.0,25.20,WNW,293,9.0,-999.0,22,0.00,,,0.00,,2017-06-25 23:39:00,
2017-06-25 16:45:00,93.9,50.0,25.20,NW,315,7.0,-999.0,22,0.00,,,0.00,,2017-06-25 23:45:00,
2017-06-25 16:50:00,92.3,49.0,25.20,West,270,7.0,-999.0,22,0.00,,,0.00,,2017-06-25 23:50:00,
2017-06-25 16:56:00,92.8,49.0,25.19,WNW,293,8.0,-999.0,22,0.00,,,0.00,,2017-06-25 23:56:00,
2017-06-25 17:01:00,91.8,49.0,25.20,NNW,338,11.0,-999.0,24,0.00,,,0.00,,2017-06-26 00:01:00,
2017-06-25 17:06:00,90.1,49.0,25.19,West,270,8.0,-999.0,25,0.00,,,0.00,,2017-06-26 00:06:00,
2017-06-25 17:12:00,90.6,50.0,25.19,West,270,13.0,-999.0,25,0.00,,,0.00,,2017-06-26 00:12:00,
2017-06-25 17:17:00,92.6,50.0,25.20,SW,225,3.0,-999.0,24,0.00,,,0.00,,2017-06-26 00:17:00,
2017-06-25 17:23:00,92.5,49.0,25.20,SW,225,6.0,-999.0,22,0.00,,,0.00,,2017-06-26 00:23:00,
2017-06-25 17:28:00,92.3,50.0,25.20,SSW,203,7.0,-999.0,24,0.00,,,0.00,,2017-06-26 00:28:00,
2017-06-25 17:35:00,92.1,50.0,25.20,West,270,8.0,-999.0,24,0.00,,,0.00,,2017-06-26 00:35:00,
2017-06-25 17:40:00,91.8,49.0,25.20,WSW,248,13.0,-999.0,24,0.00,,,0.00,,2017-06-26 00:40:00,
2017-06-25 17:45:00,91.9,49.0,25.20,West,270,6.0,-999.0,24,0.00,,,0.00,,2017-06-26 00:45:00,
2017-06-25 17:51:00,91.8,49.0,25.20,WSW,248,9.0,-999.0,24,0.00,,,0.00,,2017-06-26 00:51:00,
2017-06-25 17:56:00,91.1,51.0,25.21,West,270,9.0,-999.0,25,0.00,,,0.00,,2017-06-26 00:56:00,
2017-06-25 18:02:00,90.6,51.0,25.21,SW,225,6.0,-999.0,25,0.00,,,0.00,,2017-06-26 01:02:00,
2017-06-25 18:08:00,90.9,51.0,25.21,WSW,248,7.0,-999.0,25,0.00,,,0.00,,2017-06-26 01:08:00,
2017-06-25 18:13:00,90.0,50.0,25.21,SW,225,6.0,-999.0,25,0.00,,,0.00,,2017-06-26 01:13:00,
2017-06-25 18:19:00,90.9,51.0,25.21,WSW,248,7.0,-999.0,25,0.00,,,0.00,,2017-06-26 01:19:00,
2017-06-25 18:24:00,90.6,51.0,25.20,West,270,9.0,-999.0,25,0.00,,,0.00,,2017-06-26 01:24:00,
2017-06-25 18:30:00,90.0,50.0,25.20,SW,225,15.0,-999.0,25,0.00,,,0.00,,2017-06-26 01:30:00,
2017-06-25 18:35:00,89.6,50.0,25.21,West,270,7.0,-999.0,25,0.00,,,0.00,,2017-06-26 01:35:00,
2017-06-25 18:41:00,89.4,49.0,25.21,NNW,338,5.0,-999.0,25,0.00,,,0.00,,2017-06-26 01:41:00,
2017-06-25 18:47:00,89.0,49.0,25.21,West,270,13.0,-999.0,25,0.00,,,0.00,,2017-06-26 01:47:00,
2017-06-25 18:53:00,88.6,50.0,25.21,West,270,9.0,-999.0,27,0.00,,,0.00,,2017-06-26 01:53:00,
2017-06-25 18:58:00,88.5,50.0,25.21,SW,225,4.0,-999.0,27,0.00,,,0.00,,2017-06-26 01:58:00,
2017-06-25 19:04:00,88.0,48.0,25.22,WNW,293,12.0,-999.0,25,0.00,,,0.00,,2017-06-26 02:04:00,
2017-06-25 19:10:00,87.3,48.0,25.21,West,270,12.0,-999.0,25,0.00,,,0.00,,2017-06-26 02:10:00,
2017-06-25 19:15:00,86.4,47.0,25.21,WNW,293,16.0,-999.0,25,0.00,,,0.00,,2017-06-26 02:15:00,
2017-06-25 19:21:00,86.4,47.0,25.23,West,270,10.0,-999.0,25,0.00,,,0.00,,2017-06-26 02:21:00,
2017-06-25 19:27:00,86.0,47.0,25.23,West,270,12.0,-999.0,25,0.00,,,0.00,,2017-06-26 02:27:00,
2017-06-25 19:33:00,85.5,46.0,25.23,WNW,293,10.0,-999.0,25,0.00,,,0.00,,2017-06-26 02:33:00,
2017-06-25 19:38:00,85.5,46.0,25.23,WSW,248,8.0,-999.0,25,0.00,,,0.00,,2017-06-26 02:38:00,
2017-06-25 19:39:00,85.5,46.0,25.23,West,270,8.0,-999.0,25,0.00,,,0.00,,2017-06-26 02:39:00,
2017-06-25 19:45:00,85.1,47.0,25.23,NW,315,5.0,-999.0,27,0.00,,,0.00,,2017-06-26 02:45:00,
2017-06-25 19:50:00,84.6,47.0,25.22,West,270,5.0,-999.0,27,0.00,,,0.00,,2017-06-26 02:50:00,
2017-06-25 19:56:00,84.4,48.0,25.23,WNW,293,10.0,-999.0,29,0.00,,,0.00,,2017-06-26 02:56:00,
2017-06-25 20:01:00,83.6,48.0,25.23,WNW,293,5.0,-999.0,29,0.00,,,0.00,,2017-06-26 03:01:00,
2017-06-25 20:07:00,83.2,47.0,25.23,NW,315,10.0,-999.0,29,0.00,,,0.00,,2017-06-26 03:07:00,
2017-06-25 20:12:00,82.6,49.0,25.23,NW,315,10.0,-999.0,31,0.00,,,0.00,,2017-06-26 03:12:00,
2017-06-25 20:17:00,81.4,50.0,25.23,West,270,7.0,-999.0,34,0.00,,,0.00,,2017-06-26 03:17:00,
2017-06-25 20:23:00,80.5,50.0,25.24,West,270,12.0,-999.0,35,0.00,,,0.00,,2017-06-26 03:23:00,
2017-06-25 20:29:00,80.1,50.0,25.24,West,270,6.0,-999.0,35,0.00,,,0.00,,2017-06-26 03:29:00,
2017-06-25 20:34:00,79.4,50.0,25.24,West,270,3.0,-999.0,37,0.00,,,0.00,,2017-06-26 03:34:00,
2017-06-25 20:40:00,79.0,51.0,25.24,SW,225,11.0,-999.0,37,0.00,,,0.00,,2017-06-26 03:40:00,
2017-06-25 20:46:00,78.5,50.0,25.24,West,270,4.0,-999.0,37,0.00,,,0.00,,2017-06-26 03:46:00,
2017-06-25 20:51:00,78.5,49.0,25.24,West,270,7.0,-999.0,35,0.00,,,0.00,,2017-06-26 03:51:00,
2017-06-25 20:57:00,78.3,51.0,25.23,West,270,9.0,-999.0,39,0.00,,,0.00,,2017-06-26 03:57:00,
2017-06-25 21:02:00,77.8,49.0,25.24,WSW,248,8.0,-999.0,37,0.00,,,0.00,,2017-06-26 04:02:00,
2017-06-25 21:08:00,77.8,49.0,25.24,West,270,12.0,-999.0,37,0.00,,,0.00,,2017-06-26 04:08:00,
2017-06-25 21:14:00,77.8,48.0,25.24,West,270,9.0,-999.0,35,0.00,,,0.00,,2017-06-26 04:14:00,
2017-06-25 21:19:00,77.8,48.0,25.23,SW,225,4.0,-999.0,35,0.00,,,0.00,,2017-06-26 04:19:00,
2017-06-25 21:26:00,77.6,47.0,25.24,West,270,4.0,-999.0,35,0.00,,,0.00,,2017-06-26 04:26:00,
2017-06-25 21:32:00,77.4,48.0,25.24,West,270,6.0,-999.0,35,0.00,,,0.00,,2017-06-26 04:32:00,
2017-06-25 21:37:00,77.4,47.0,25.23,WNW,293,6.0,21.0,35,0.00,,,0.00,,2017-06-26 04:37:00,
2017-06-25 21:43:00,77.1,47.0,25.23,West,270,12.0,-999.0,35,0.00,,,0.00,,2017-06-26 04:43:00,
2017-06-25 21:50:00,77.4,46.0,25.23,West,270,6.0,-999.0,34,0.00,,,0.00,,2017-06-26 04:50:00,
2017-06-25 21:55:00,77.1,46.0,25.24,WSW,248,6.0,-999.0,34,0.00,,,0.00,,2017-06-26 04:55:00,
2017-06-25 22:01:00,76.5,46.0,25.24,NW,315,8.0,-999.0,35,0.00,,,0.00,,2017-06-26 05:01:00,
2017-06-25 22:06:00,76.3,46.0,25.24,WNW,293,7.0,-999.0,35,0.00,,,0.00,,2017-06-26 05:06:00,
2017-06-25 22:12:00,75.9,47.0,25.24,North,0,10.0,-999.0,35,0.00,,,0.00,,2017-06-26 05:12:00,
2017-06-25 22:18:00,75.6,46.0,25.25,NNW,338,10.0,-999.0,35,0.00,,,0.00,,2017-06-26 05:18:00,
2017-06-25 22:24:00,75.3,47.0,25.24,NW,315,5.0,-999.0,37,0.00,,,0.00,,2017-06-26 05:24:00,
2017-06-25 22:29:00,75.0,46.0,25.24,NW,315,9.0,-999.0,37,0.00,,,0.00,,2017-06-26 05:29:00,
2017-06-25 22:34:00,74.6,47.0,25.25,West,270,5.0,-999.0,37,0.00,,,0.00,,2017-06-26 05:34:00,
2017-06-25 22:40:00,74.0,46.0,25.25,NW,315,6.0,-999.0,37,0.00,,,0.00,,2017-06-26 05:40:00,
2017-06-25 22:45:00,74.3,47.0,25.25,NW,315,9.0,-999.0,37,0.00,,,0.00,,2017-06-26 05:45:00,
2017-06-25 22:51:00,74.0,46.0,25.25,West,270,9.0,-999.0,37,0.00,,,0.00,,2017-06-26 05:51:00,
2017-06-25 22:57:00,73.9,47.0,25.25,WNW,293,8.0,-999.0,39,0.00,,,0.00,,2017-06-26 05:57:00,
2017-06-25 23:03:00,74.3,47.0,25.24,WNW,293,8.0,-999.0,37,0.00,,,0.00,,2017-06-26 06:03:00,
2017-06-25 23:08:00,74.0,45.0,25.25,WNW,293,5.0,-999.0,35,0.00,,,0.00,,2017-06-26 06:08:00,
2017-06-25 23:14:00,74.3,44.0,25.24,WNW,293,7.0,-999.0,34,0.00,,,0.00,,2017-06-26 06:14:00,
2017-06-25 23:19:00,74.0,46.0,25.24,North,0,2.0,-999.0,37,0.00,,,0.00,,2017-06-26 06:19:00,
2017-06-25 23:25:00,74.4,43.0,25.25,SSW,203,3.0,-999.0,32,0.00,,,0.00,,2017-06-26 06:25:00,
2017-06-25 23:30:00,73.5,47.0,25.25,NNW,338,5.0,-999.0,39,0.00,,,0.00,,2017-06-26 06:30:00,
2017-06-25 23:36:00,72.8,47.0,25.25,NNW,338,5.0,-999.0,40,0.00,,,0.00,,2017-06-26 06:36:00,